• In Netherlands
  • List of Countries
  • For 7 days
  • Water Temperature
  • Satellite Maps
  • Weather Map
  • Weather Widgets
  • user-avatar
    Login

    Hourly Weather Shusha

    Today, 21 January, Saturday

    Time Temperature Precipitation Wind Pressure Humidity
    00:00 -6°C° 0 mm 0 mps 660 mmHg 91%
    01:00 -6°C° 0 mm 0 mps 660 mmHg 91%
    02:00 -6°C° 0 mm 0 mps 660 mmHg 91%
    03:00 -6°C° 0 mm 0 mps 660 mmHg 91%
    04:00 -6°C° 0 mm 0 mps 660 mmHg 90%
    05:00 -7°C° 0 mm 0 mps 659 mmHg 90%
    06:00 -7°C° 0 mm 0 mps 659 mmHg 90%
    07:00 -5°C° 0 mm 0 mps 660 mmHg 84%
    08:00 -4°C° 0 mm 0 mps 661 mmHg 78%
    09:00 -2°C° 0 mm 0 mps 661 mmHg 72%
    10:00 0°C° 0 mm 1 mps 661 mmHg 68%
    11:00 +1°C° 0 mm 1 mps 661 mmHg 63%
    12:00 +2°C° 0 mm 1 mps 662 mmHg 59%
    13:00 +2°C° 0 mm 1 mps 661 mmHg 60%
    14:00 +1°C° 0 mm 2 mps 661 mmHg 61%
    15:00 +1°C° 0 mm 2 mps 660 mmHg 62%
    16:00 0°C° 0 mm 1 mps 660 mmHg 69%
    17:00 -2°C° 0 mm 1 mps 660 mmHg 76%
    18:00 -4°C° 0 mm 1 mps 659 mmHg 84%
    19:00 -5°C° 0 mm 0 mps 659 mmHg 84%
    20:00 -6°C° 0 mm 0 mps 659 mmHg 84%
    21:00 -6°C° 0 mm 0 mps 659 mmHg 84%
    22:00 -6°C° 0 mm 0 mps 659 mmHg 84%
    23:00 -6°C° 0 mm 1 mps 659 mmHg 83%

    Tomorrow, 22 January, Sunday

    Time Temperature Precipitation Wind Pressure Humidity
    00:00 -6°C° 0 mm 1 mps 659 mmHg 83%
    01:00 -6°C° 0 mm 1 mps 659 mmHg 82%
    02:00 -6°C° 0 mm 1 mps 659 mmHg 81%
    03:00 -6°C° 0 mm 1 mps 659 mmHg 80%
    04:00 -7°C° 0 mm 1 mps 659 mmHg 80%
    05:00 -7°C° 0 mm 1 mps 659 mmHg 79%
    06:00 -7°C° 0 mm 1 mps 658 mmHg 78%
    07:00 -6°C° 0 mm 1 mps 659 mmHg 74%
    08:00 -3°C° 0 mm 1 mps 660 mmHg 70%
    09:00 -2°C° 0 mm 1 mps 660 mmHg 65%
    10:00 -1°C° 0 mm 1 mps 660 mmHg 62%
    11:00 0°C° 0 mm 1 mps 660 mmHg 58%
    12:00 -1°C° 0 mm 2 mps 660 mmHg 55%
    13:00 -1°C° 0 mm 2 mps 660 mmHg 56%
    14:00 -1°C° 0 mm 2 mps 660 mmHg 57%
    15:00 -1°C° 0 mm 2 mps 660 mmHg 59%
    16:00 -3°C° 0 mm 2 mps 661 mmHg 64%
    17:00 -2°C° 0 mm 1 mps 661 mmHg 70%
    18:00 -3°C° 0 mm 1 mps 661 mmHg 76%
    19:00 -3°C° 0.1 mm 1 mps 662 mmHg 76%
    20:00 -4°C° 0.1 mm 1 mps 663 mmHg 77%
    21:00 -4°C° 0.1 mm 1 mps 663 mmHg 78%
    22:00 -4°C° 0.1 mm 1 mps 664 mmHg 79%
    23:00 -4°C° 0.1 mm 1 mps 664 mmHg 80%

    Day after tomorrow, 23 January, Monday

    Time Temperature Precipitation Wind Pressure Humidity
    00:00 -4°C° 0.1 mm 1 mps 665 mmHg 81%
    01:00 -6°C° 0.1 mm 1 mps 665 mmHg 82%
    02:00 -6°C° 0.1 mm 1 mps 665 mmHg 84%
    03:00 -7°C° 0.1 mm 1 mps 665 mmHg 85%
    04:00 -7°C° 0 mm 1 mps 665 mmHg 84%
    05:00 -7°C° 0 mm 1 mps 665 mmHg 82%
    06:00 -8°C° 0 mm 1 mps 665 mmHg 81%
    07:00 -6°C° 0 mm 1 mps 666 mmHg 76%
    08:00 -4°C° 0 mm 1 mps 667 mmHg 70%
    09:00 -2°C° 0 mm 1 mps 668 mmHg 65%
    10:00 -1°C° 0 mm 1 mps 668 mmHg 61%
    11:00 0°C° 0 mm 1 mps 668 mmHg 58%
    12:00 +1°C° 0 mm 1 mps 668 mmHg 54%
    13:00 +1°C° 0 mm 1 mps 667 mmHg 55%
    14:00 +1°C° 0 mm 1 mps 667 mmHg 57%
    15:00 +1°C° 0 mm 1 mps 667 mmHg 58%
    16:00 -1°C° 0 mm 1 mps 666 mmHg 66%
    17:00 -3°C° 0 mm 1 mps 666 mmHg 73%
    18:00 -6°C° 0 mm 0 mps 665 mmHg 80%
    19:00 -6°C° 0 mm 1 mps 665 mmHg 78%
    20:00 -6°C° 0 mm 1 mps 665 mmHg 76%
    21:00 -6°C° 0 mm 1 mps 666 mmHg 74%
    22:00 -6°C° 0 mm 1 mps 666 mmHg 72%
    23:00 -6°C° 0 mm 1 mps 665 mmHg 71%

    24 January, Tuesday

    Time Temperature Precipitation Wind Pressure Humidity
    00:00 -6°C° 0 mm 1 mps 665 mmHg 69%
    01:00 -6°C° 0 mm 1 mps 665 mmHg 69%
    02:00 -6°C° 0 mm 1 mps 665 mmHg 68%
    03:00 -6°C° 0 mm 1 mps 665 mmHg 67%
    04:00 -6°C° 0 mm 1 mps 665 mmHg 67%
    05:00 -6°C° 0 mm 1 mps 665 mmHg 67%
    06:00 -7°C° 0 mm 1 mps 665 mmHg 66%
    07:00 -4°C° 0 mm 1 mps 666 mmHg 62%
    08:00 -2°C° 0 mm 1 mps 666 mmHg 58%
    09:00 -1°C° 0 mm 1 mps 667 mmHg 54%
    10:00 +1°C° 0 mm 1 mps 667 mmHg 51%
    11:00 +2°C° 0 mm 1 mps 667 mmHg 47%
    12:00 +3°C° 0 mm 1 mps 667 mmHg 44%
    13:00 +3°C° 0 mm 1 mps 666 mmHg 46%
    14:00 +3°C° 0 mm 1 mps 666 mmHg 49%
    15:00 +3°C° 0 mm 1 mps 665 mmHg 52%
    16:00 +1°C° 0 mm 1 mps 664 mmHg 59%
    17:00 -2°C° 0 mm 1 mps 664 mmHg 67%
    18:00 -4°C° 0 mm 1 mps 663 mmHg 75%
    19:00 -4°C° 0 mm 1 mps 663 mmHg 73%
    20:00 -4°C° 0 mm 1 mps 663 mmHg 70%
    21:00 -4°C° 0 mm 1 mps 663 mmHg 68%
    22:00 -4°C° 0 mm 1 mps 662 mmHg 66%
    23:00 -4°C° 0 mm 1 mps 662 mmHg 64%

    25 January, Wednesday

    Time Temperature Precipitation Wind Pressure Humidity
    00:00 -6°C° 0 mm 2 mps 662 mmHg 62%
    01:00 -6°C° 0 mm 2 mps 661 mmHg 61%
    02:00 -6°C° 0 mm 2 mps 661 mmHg 59%
    03:00 -6°C° 0 mm 2 mps 661 mmHg 58%
    04:00 -6°C° 0 mm 2 mps 660 mmHg 58%
    05:00 -6°C° 0 mm 2 mps 660 mmHg 57%
    06:00 -6°C° 0 mm 2 mps 659 mmHg 57%
    07:00 -5°C° 0 mm 2 mps 659 mmHg 54%
    08:00 -3°C° 0 mm 2 mps 660 mmHg 51%
    09:00 -2°C° 0 mm 2 mps 660 mmHg 47%
    10:00 +1°C° 0 mm 2 mps 659 mmHg 44%
    11:00 +4°C° 0 mm 1 mps 659 mmHg 41%
    12:00 +6°C° 0 mm 1 mps 659 mmHg 38%
    13:00 +6°C° 0 mm 1 mps 658 mmHg 40%
    14:00 +6°C° 0 mm 1 mps 658 mmHg 43%
    15:00 +5°C° 0 mm 1 mps 657 mmHg 46%
    16:00 +3°C° 0 mm 1 mps 657 mmHg 49%
    17:00 +1°C° 0 mm 1 mps 656 mmHg 53%
    18:00 -3°C° 0 mm 2 mps 656 mmHg 56%
    19:00 -3°C° 0 mm 2 mps 656 mmHg 58%
    20:00 -3°C° 0 mm 2 mps 656 mmHg 59%
    21:00 -3°C° 0 mm 2 mps 656 mmHg 61%
    22:00 -3°C° 0 mm 2 mps 655 mmHg 62%
    23:00 -3°C° 0 mm 2 mps 655 mmHg 64%

    26 January, Thursday

    Time Temperature Precipitation Wind Pressure Humidity
    00:00 -3°C° 0 mm 2 mps 655 mmHg 66%
    01:00 -4°C° 0 mm 2 mps 655 mmHg 67%
    02:00 -4°C° 0 mm 2 mps 655 mmHg 68%
    03:00 -2°C° 0 mm 1 mps 655 mmHg 70%
    04:00 -2°C° 0 mm 1 mps 655 mmHg 71%
    05:00 -2°C° 0 mm 1 mps 655 mmHg 71%
    06:00 -3°C° 0 mm 1 mps 655 mmHg 72%
    07:00 -1°C° 0 mm 1 mps 655 mmHg 67%
    08:00 0°C° 0 mm 1 mps 656 mmHg 62%
    09:00 +2°C° 0 mm 1 mps 656 mmHg 57%
    10:00 +3°C° 0 mm 1 mps 656 mmHg 56%
    11:00 +2°C° 0 mm 2 mps 656 mmHg 54%
    12:00 +3°C° 0 mm 2 mps 656 mmHg 53%
    13:00 +3°C° 0.1 mm 2 mps 655 mmHg 54%
    14:00 +2°C° 0.1 mm 2 mps 655 mmHg 56%
    15:00 +2°C° 0.1 mm 2 mps 655 mmHg 58%
    16:00 +1°C° 0.1 mm 2 mps 655 mmHg 64%
    17:00 +1°C° 0.1 mm 1 mps 655 mmHg 69%
    18:00 -1°C° 0.1 mm 1 mps 654 mmHg 75%
    19:00 -1°C° 0.1 mm 1 mps 655 mmHg 75%
    20:00 -1°C° 0.1 mm 1 mps 655 mmHg 76%
    21:00 -1°C° 0.1 mm 1 mps 655 mmHg 77%
    22:00 -1°C° 0.1 mm 1 mps 655 mmHg 78%
    23:00 -2°C° 0.1 mm 1 mps 655 mmHg 79%
    Show more